Flag for Iceland Weather past 2 weeks in Keflavík, Iceland

36 °F

Passing clouds.

Feels Like: 33 °F
Forecast: 38 / 46 °F
Wind: 3 mph from Southeast

Location: Keflavikurflugvollur

Current Time: Oct 10, 2015 at 8:00:32 AM

Latest Report: Oct 10, 2015 at 7:30 AM

Visibility: N/A

Pressure: 30.01 "Hg

Humidity: 100%

Dew point: 36 °F

Location of KeflavíkLocation

Historic Weather in Keflavík — Graph


Keflavík temperature yesterday

Maximum temperature yesterday: 45 °F (at 12:00 PM)
Minimum temperature yesterday: 37 °F (at 12:30 AM)
Average temperature yesterday: 41 °F

Past Weeks' High & Low Weather Summary

High54 °F (Sep 26, 2:00 PM)100% (Sep 25, 5:00 PM)30.15 "Hg (Sep 25, 5:00 PM)
Low36 °F (Oct 2, 9:30 PM)57% (Oct 2, 5:30 PM)28.91 "Hg (Oct 6, 1:30 PM)
Average43 °F88%29.59 "Hg
* Reported Sep 25 7:00 AM — Oct 10 7:00 AM, Keflavík, Weather by CustomWeather, © 2015

Note: Actual official high and low records may vary slightly from our data, if they occured in-between our weather recording intervals... More about our weather records


Keflavík weather history for previous 24 hours

Time TempWeatherWind HumidityBarometerVisibility
7:00 AM
Sat, Oct 10
36 °FPassing clouds.5 mph100%30.01 "HgN/A
6:30 AM37 °FPassing clouds.3 mph100%29.98 "HgN/A
6:00 AM37 °FPartly cloudy.5 mph100%29.98 "HgN/A
5:30 AM37 °FPassing clouds.3 mph100%29.98 "Hg2 mi
5:00 AM37 °FPassing clouds.3 mph100%29.98 "Hg1 mi
4:30 AM37 °FFog.3 mph100%29.98 "Hg1 mi
4:00 AM37 °FPassing clouds.3 mph100%29.98 "HgN/A
3:30 AM39 °FPassing clouds.2 mph93%29.98 "HgN/A
3:00 AM37 °FPassing clouds.1 mph100%29.98 "HgN/A
2:30 AM39 °FDrizzle. Fog.No wind100%29.98 "Hg2 mi
2:00 AM39 °FDrizzle. Fog.3 mph100%29.98 "Hg1 mi
1:30 AM39 °FPassing clouds.6 mph100%29.98 "HgN/A
1:00 AM39 °FPassing clouds.5 mph93%29.98 "HgN/A
12:30 AM39 °FPassing clouds.5 mph100%29.98 "Hg2 mi
12:00 AM39 °FPassing clouds.6 mph100%29.95 "HgN/A
11:30 PM
Fri, Oct 9
39 °FMostly cloudy.9 mph93%29.95 "HgN/A
11:00 PM39 °FPartly cloudy.8 mph100%29.95 "HgN/A
10:30 PM39 °FPartly cloudy.9 mph100%29.95 "HgN/A
10:00 PM41 °FDrizzle. Overcast.10 mph93%29.92 "HgN/A
9:00 PM41 °FDrizzle. Overcast.9 mph93%29.92 "HgN/A
8:30 PM39 °FPassing clouds.13 mph93%29.92 "HgN/A
8:00 PM41 °FDrizzle. Mostly cloudy.13 mph93%29.89 "Hg4 mi
7:30 PM41 °FPassing clouds.14 mph87%29.89 "HgN/A
7:00 PM41 °FPartly cloudy.14 mph87%29.89 "HgN/A
6:30 PM41 °FBroken clouds.12 mph93%29.86 "HgN/A
6:00 PM41 °FBroken clouds.16 mph93%29.86 "HgN/A
5:30 PM41 °FPartly sunny.15 mph93%29.83 "HgN/A
5:00 PM43 °FPartly sunny.13 mph87%29.83 "HgN/A
4:30 PM43 °FScattered showers. Broken clouds.17 mph87%29.83 "HgN/A
4:00 PM43 °FScattered showers. Broken clouds.16 mph87%29.80 "HgN/A
3:30 PM43 °FScattered showers. Partly sunny.15 mph87%29.80 "HgN/A
3:00 PM43 °FScattered showers. Partly sunny.17 mph87%29.80 "HgN/A
2:30 PM43 °FScattered showers. Partly sunny.17 mph87%29.77 "HgN/A
2:00 PM43 °FScattered showers. Broken clouds.16 mph93%29.77 "HgN/A
1:30 PM43 °FScattered showers. Broken clouds.18 mph87%29.77 "HgN/A
1:00 PM45 °FScattered showers. Partly sunny.17 mph81%29.77 "HgN/A
12:30 PM43 °FScattered showers. Partly sunny.18 mph87%29.74 "HgN/A
12:00 PM45 °FScattered showers. Partly sunny.14 mph81%29.74 "HgN/A
11:30 AM43 °FScattered showers. Broken clouds.13 mph87%29.74 "HgN/A
11:00 AM41 °FSprinkles. Broken clouds.7 mph93%29.74 "HgN/A
10:30 AM41 °FScattered showers. Partly sunny.14 mph93%29.71 "HgN/A
10:00 AM43 °FScattered showers. Partly sunny.14 mph87%29.71 "HgN/A
9:30 AM41 °FScattered showers. Broken clouds.8 mph93%29.68 "HgN/A
9:00 AM41 °FScattered showers. Broken clouds.9 mph87%29.68 "HgN/A
8:30 AM41 °FScattered showers. Broken clouds.15 mph87%29.68 "HgN/A
8:00 AM41 °FSprinkles. Partly cloudy.15 mph87%29.68 "HgN/A
Weather by CustomWeather, © 2015

See weather overviewHow to use our weather pages